Victoria, British Columbia

1:41 AM PST on February 21, 2018 (GMT -0800)
Victoria International

Weather History for CYYJ - October, 2014

Change the Weather History Date:

Tuesday, October 21, 2014

  Actual Average Record
Temperature  
Mean Temperature 54 °F -  
Max Temperature 59 °F 51 °F 64 °F (1998)
Min Temperature 50 °F 38 °F 35 °F (2008)
Degree Days  
Heating Degree Days 10    
Growing Degree Days 4 (Base 50)    
Moisture  
Dew Point 51 °F    
Average Humidity 89    
Maximum Humidity 100    
Minimum Humidity 75    
Precipitation  
Precipitation 0.04 in 0.16 in - ()
Sea Level Pressure  
Sea Level Pressure 29.77 in    
Wind  
Wind Speed 9 mph ()    
Max Wind Speed 24 mph    
Max Gust Speed 33 mph    
Visibility 11.0 miles    
Events Rain    
Averages and records for this station are not official NWS values.
T = Trace of Precipitation, MM = Missing Value Source: Averaged Metar Reports

Daily Weather History Graph

Daily Weather History Graph

Search for Another Location

Airport or City:

Trip Planner

Search our weather history database for the weather conditions in past years. The results will help you decide how hot, cold, wet, or windy it might be!

Date:

Astronomy

Oct. 21, 2014 Rise Set
Actual Time 7:43 AM PDT 6:12 PM PDT
Civil Twilight 7:11 AM PDT 6:44 PM PDT
Nautical Twilight 6:34 AM PDT 7:21 PM PDT
Astronomical Twilight 5:58 AM PDT 7:57 PM PDT
Moon 5:22 AM PDT 5:17 PM PDT
Length of Visible Light 11h 33m
Length of Day
10h 29m
Waning Crescent, 4% of the Moon is Illuminated
Oct 21
Waning Crescent
Oct 23
New
Oct 30
First Quarter
Nov 6
Full
Nov 14
Last Quarter

Hourly Weather History & Observations

Time (PDT) Temp. Dew Point Humidity Pressure Visibility Wind Dir Wind Speed Gust Speed Precip Events Conditions
12:00 AM 53.6 °F 51.8 °F 94% 29.75 in 30.0 mi ESE 6.9 mph - N/A   Mostly Cloudy
12:33 AM 53.6 °F 51.8 °F 94% 29.74 in 15.0 mi ESE 9.2 mph - N/A Rain Light Rain
1:00 AM 51.8 °F 51.8 °F 100% 29.75 in 12.0 mi ESE 3.5 mph - N/A   Mostly Cloudy
1:54 AM 53.6 °F 51.8 °F 94% 29.76 in 1.2 mi South 6.9 mph - N/A   Overcast
2:00 AM 53.6 °F 51.8 °F 94% 29.76 in 1.2 mi South 6.9 mph - N/A   Overcast
2:32 AM 53.6 °F 51.8 °F 94% 29.76 in 3.0 mi East 6.9 mph - N/A   Overcast
3:00 AM 53.6 °F 51.8 °F 94% 29.77 in 3.0 mi East 6.9 mph - N/A   Overcast
3:45 AM 53.6 °F 51.8 °F 94% 29.76 in 5.0 mi ESE 9.2 mph - N/A Rain Light Rain
4:00 AM 51.8 °F 51.8 °F 100% 29.75 in 3.0 mi ESE 8.1 mph - N/A Rain Light Rain
4:18 AM 51.8 °F 51.8 °F 100% 29.76 in 3.0 mi SE 8.1 mph - N/A   Mostly Cloudy
5:00 AM 51 °F 51 °F 99% 29.77 in 5 mi East 6.9 mph - - Rain Light Rain
5:00 AM 51.8 °F 50.0 °F 94% 29.77 in 5.0 mi East 6.9 mph - N/A   Mostly Cloudy
6:00 AM 53.6 °F 51.8 °F 94% 29.79 in 5.0 mi East 6.9 mph - N/A   Mostly Cloudy
6:54 AM 53.6 °F 51.8 °F 94% 29.79 in 5.0 mi East 6.9 mph - N/A Rain Light Rain
7:00 AM 53.6 °F 51.8 °F 94% 29.79 in 5.0 mi East 9.2 mph - N/A Rain Light Rain
7:15 AM 53.6 °F 50.0 °F 88% 29.79 in 8.0 mi ENE 6.9 mph - N/A   Mostly Cloudy
8:00 AM 51.8 °F 50.0 °F 94% 29.81 in 12.0 mi East 4.6 mph - N/A   Mostly Cloudy
9:00 AM 53.6 °F 50.0 °F 88% 29.82 in 20.0 mi SSE 4.6 mph - N/A   Mostly Cloudy
10:00 AM 55.4 °F 50.0 °F 82% 29.84 in 30.0 mi SSE 12.7 mph - N/A   Partly Cloudy
11:00 AM 55 °F 51 °F 83% 29.85 in 28 mi SE 13.8 mph - -   Partly Cloudy
11:00 AM 55.4 °F 51.8 °F 88% 29.85 in 30.0 mi SE 13.8 mph - N/A   Mostly Cloudy
12:00 PM 55.4 °F 51.8 °F 88% 29.86 in 30.0 mi SE 11.5 mph - N/A   Mostly Cloudy
12:23 PM 55.4 °F 51.8 °F 88% 29.85 in 30.0 mi SE 15.0 mph - N/A Rain Light Rain
12:46 PM 55.4 °F 51.8 °F 88% 29.84 in 30.0 mi SE 13.8 mph - N/A   Mostly Cloudy
1:00 PM 57.2 °F 51.8 °F 82% 29.84 in 30.0 mi SE 12.7 mph - N/A   Mostly Cloudy
2:00 PM 57.2 °F 51.8 °F 82% 29.82 in 30.0 mi SSE 12.7 mph - N/A   Mostly Cloudy
2:30 PM 57.2 °F 51.8 °F 82% 29.81 in 30.0 mi ESE 10.4 mph - N/A Rain Light Rain
2:51 PM 57.2 °F 51.8 °F 82% 29.80 in 30.0 mi SE 10.4 mph - N/A   Scattered Clouds
3:00 PM 57.2 °F 51.8 °F 82% 29.80 in 30.0 mi SE 6.9 mph - N/A   Mostly Cloudy
4:00 PM 55.4 °F 51.8 °F 88% 29.80 in 30.0 mi SE 11.5 mph - N/A   Mostly Cloudy
4:05 PM 55.4 °F 51.8 °F 88% 29.80 in 30.0 mi SE 9.2 mph - N/A Rain Light Rain
4:53 PM 55.4 °F 51.8 °F 88% 29.78 in 30.0 mi SSE 10.4 mph - N/A   Mostly Cloudy
5:00 PM 54 °F 52 °F 90% 29.78 in 28 mi SE 10.4 mph - - Rain Light Rain
5:00 PM 53.6 °F 51.8 °F 94% 29.78 in 30.0 mi SE 11.5 mph - N/A   Mostly Cloudy
5:15 PM 55.4 °F 51.8 °F 88% 29.77 in 30.0 mi SE 10.4 mph - N/A Rain Light Rain
6:00 PM 53.6 °F 51.8 °F 94% 29.77 in 12.0 mi SE 13.8 mph - N/A Rain Light Rain
7:00 PM 53.6 °F 51.8 °F 94% 29.74 in 15.0 mi SE 10.4 mph - N/A Rain Light Rain
7:29 PM 53.6 °F 51.8 °F 94% 29.72 in 20.0 mi SE 15.0 mph 20.7 mph N/A   Mostly Cloudy
7:48 PM 53.6 °F 51.8 °F 94% 29.71 in 20.0 mi SSE 9.2 mph - N/A Rain Light Rain
8:00 PM 55.4 °F 50.0 °F 82% 29.70 in 20.0 mi SSE 10.4 mph 17.3 mph N/A Rain Light Rain
9:00 PM 55.4 °F 50.0 °F 82% 29.66 in 20.0 mi SE 24.2 mph 33.4 mph N/A Rain Light Rain
9:29 PM 55.4 °F 50.0 °F 82% 29.65 in 20.0 mi SSE 16.1 mph 23.0 mph N/A   Overcast
10:00 PM 55.4 °F 50.0 °F 82% 29.64 in 20.0 mi SE 18.4 mph 33.4 mph N/A   Overcast
11:00 PM 56 °F 50 °F 75% 29.60 in 19 mi SSE 20.7 mph - -   Partly Cloudy
11:00 PM 55.4 °F 50.0 °F 82% 29.60 in 20.0 mi SSE 24.2 mph 32.2 mph N/A   Overcast